Regional Weather Roundup
Issued by NWS

Home | Current Version | Previous Version | Text Only | Print | Product List | Glossary On
Versions: 1 2 3 4 5 6 7 8 9 10 11 12 13 14 15 16 17 18 19 20 21 22 23 24 25 26 27 28 29 30 31 32 33 34 35 36 37 38 39 40 41 42 43 44 45 46 47 48 49 50
000
ASUS43 KMKX 070300
RWRWI

WISCONSIN REGIONAL WEATHER ROUNDUP
NATIONAL WEATHER SERVICE MILWAUKEE/SULLIVAN WI
1000 PM CDT MON JUL 06 2015

NOTE: "FAIR" INDICATES FEW OR NO CLOUDS BELOW 12,000 FEET WITH NO
SIGNIFICANT WEATHER AND/OR OBSTRUCTIONS TO VISIBILITY.

WIZ001-002-006>008-014>016-023>028-070400-
NORTHWEST WISCONSIN

CITY           SKY/WX    TMP DP  RH WIND       PRES   REMARKS
SUPERIOR ARPT  CLOUDY    58  48  69 N6        30.02R
ASHLAND        CLOUDY    60  54  80 NW8       30.00R
HAYWARD        CLOUDY    61  52  72 N6        30.01R
SIREN          PTCLDY    59  49  67 NW8       30.03R
CUMBERLAND     CLOUDY    61  52  72 N13       29.98S
RICE LAKE      CLOUDY    62  58  87 NW3       29.98S FOG
CHETEK         CLOUDY    64  59  85 N6        29.97R FOG
LADYSMITH      CLEAR     58  56  92 N5        29.98S FOG
EAU CLAIRE     CLOUDY    59  57  94 NW3       29.96R FOG
MENOMONIE      CLOUDY    63  58  86 NW3       29.97R FOG
NEW RICHMOND   CLEAR     61  50  66 NW17G24   30.00R
OSCEOLA        MOCLDY    62  49  64 NW13      30.03R
$$

WIZ003>005-009-010-017-018-070400-
NORTH CENTRAL WISCONSIN

CITY           SKY/WX    TMP DP  RH WIND       PRES   REMARKS
MANITOWISH WTR MOCLDY    55  55 100 NW3       29.96R FOG
ARBOR VITAE    PTCLDY    57  55  93 N8        29.95R FOG
WOODRUFF       PTCLDY    57  55  93 N8        29.95R FOG
RHINELANDER    CLOUDY    58  55  90 N6        29.95R FOG
EAGLE RIVER    CLOUDY    57  55  94 N7        29.94R FOG
LAND O LAKES   CLOUDY    57  55  94 N9        29.95R FOG
PHILLIPS       CLEAR     56  55  97 NW3       29.96S FOG
TOMAHAWK       MOCLDY    57  54  89 NW6       29.95R FOG
MEDFORD        PTCLDY    57  56  94 NW7       29.95R FOG
MERRILL        CLOUDY    60  57  91 N6        29.94R FOG
$$

WIZ029-030-035-036-043>047-070400-
CENTRAL WISCONSIN

CITY           SKY/WX    TMP DP  RH WIND       PRES   REMARKS
WAUSAU         CLOUDY    62  56  80 N9        29.92R HAZE
MOSINEE        NOT AVBL
MARSHFIELD     CLOUDY    61  54  77 N12       29.94R HAZE
STEVENS POINT  CLOUDY    60  56  87 N8        29.91R
WAUPACA        CLOUDY    65  63  92 N10       29.88R
WAUTOMA        CLOUDY    64  63  94 N10       29.89R
WISC RAPIDS    CLOUDY    63  55  75 N16       29.94R HAZE
CAMP DOUGLAS   NOT AVBL
$$

WIZ011>013-019>022-031-037>040-048>050-070400-
NORTHEAST WISCONSIN

CITY           SKY/WX    TMP DP  RH WIND       PRES   REMARKS
ANTIGO         CLOUDY    58  56  93 N10       29.92R FOG
SHAWANO        CLOUDY    64  59  84 N8        29.89R
OCONTO         CLOUDY    60  60 100 N13       29.85R
STURGEON BAY   CLOUDY    61  55  82 N21G29    29.86R
GREEN BAY      CLOUDY    65  60  84 N14G21    29.86R
MANITOWOC      CLOUDY    73  72  94 MISG      29.80S
APPLETON       DRIZZLE   63  63 100 N18G25    29.86R
CLINTONVILLE   CLOUDY    63  57  82 N12       29.87R
OSHKOSH        LGT RAIN  66  62  87 N15G24    29.84R
$$

WIZ032>034-041-042-053>061-070400-
SOUTHWEST WISCONSIN

CITY           SKY/WX    TMP DP  RH WIND       PRES   REMARKS
LA CROSSE      CLOUDY    63  57  81 N8        29.96R HAZE
SPARTA         PTCLDY    62  55  79 N7        29.95R HAZE
VIROQUA        CLOUDY    62  57  86 N14       29.94R
BOSCOBEL       CLOUDY    66  60  81 N5        29.93R
PRAIRIE DU CHI MOCLDY    67  56  69 N10G21    29.92R
PLATTEVILLE    CLOUDY    67  65  93 NW16      29.90R
$$

WIZ056-057-062-063-064-067-068-070400-
SOUTH CENTRAL WISCONSIN

CITY           SKY/WX    TMP DP  RH WIND       PRES   REMARKS
REEDSBURG      CLOUDY    63  61  94 NW8       29.89R
BARABOO/DELLS  DRIZZLE   63  60  92 N13G18    29.89R
LONE ROCK      CLOUDY    65  61  87 NW10      29.90R
MINERAL POINT  CLOUDY    66  64  94 NW10      29.89R
MADISON        RAIN      74  71  91 NW8G23    29.82R FOG
MIDDLETON      CLOUDY    73  71  96 NW9       29.84R
WATERTOWN      LGT RAIN  74  74 100 SW3       29.82S
MONROE         RAIN      72  70  94 W17G24    29.86R
JANESVILLE     RAIN      77  73  88 S6        29.83S
$$

WIZ051-052-058>065-066-070>072-070400-
SOUTHEAST WISCONSIN

CITY           SKY/WX    TMP DP  RH WIND       PRES   REMARKS
MILWAUKEE      LGT RAIN  75  71  87 SW9       29.82S
WAUKESHA       CLOUDY    72  70  94 SW5       29.83S
MILWAUKEE/TIMM HVY RAIN  73  68  83 SW8       29.83R
RACINE         CLOUDY    76  68  76 SW13G21   29.84S
BURLINGTON     CLOUDY    72  68  86 SW7       29.84S
KENOSHA        LGT RAIN  74  69  85 SW9       29.84R
FOND DU LAC    CLOUDY    74  71  91 W6        29.82R
SHEBOYGAN      CLOUDY    75  69  81 SW7       29.80S
WEST BEND      CLOUDY    73  68  83 CALM      29.82S
JUNEAU         DRIZZLE   73  71  93 S3        29.84R
$$

LSZ147-162-070400-
LAKE SUPERIOR

STATION/POSITION TIME  TEMP    WIND        PRES    WAVE
                       AIR SEA DIR/SP/G            HT/PER
                 (UTC) (F)     (DEG/KT/KT) (MB)    (FT/S)
W MID LAKE BUOY  0150   48 39  280/  6/  6 1013.4R   0
DEVILS ISLAND    0200   61     330/ 14/ 16 1014.3R
PORT WING        0200   62     340/ 12/ 14 1014.9R
SAXON HARBOR     0200   59        CALM     1013.9
$$

LMZ867-665-643>646-070400-
LAKE MICHIGAN

STATION/POSITION TIME  TEMP    WIND        PRES    WAVE
                       AIR SEA DIR/SP/G            HT/PER
                 (UTC) (F)     (DEG/KT/KT) (MB)    (FT/S)
CHAMBERS ISLAND  0200   60     350/ 21/ 24 1009.5R
S GREEN BAY BUOY 0130   73 70  230/ 16/ 21 1009.3R
N MID LAKE BUOY  0150   58 57   10/ 16/ 19 1008.5R   4/ 6
NORTHPORT PIER   0200   60      10/ 13/ 17 1009.5R
SISTER BAY       0159   59      10/ 11/ 13   N/A
ALGOMA LAKESHORE 0211             CALM       N/A
KEWAUNEE LAKESHO 0200   75     240/  5/ 10 1007.7R
SHEBOYGAN LAKESH 0200   72     190/  8/  8 1009.3R
PORT WASHINGTON  0200   71     230/  3/  5 1009.8S
ATWATER BUOY     0200   68 59  180/  8/  8 1011.0S
MILWAUKEE LAKESH 0200   75     240/  7/  7   N/A
KENOSHA   LAKESH 0200   74     220/  5/  6 1009.8R
$$

TC  - TEMPERATURE IN CELSIUS
VSB - VISIBILITY IN STATUTE MILES
WCI - WIND CHILL INDEX
HX  - HEAT INDEX




USA.gov is the U.S. government's official web portal to all federal, state and local government web resources and services.